Location: Burgberg
(50.1428°N, 11.0671°E)
Time: 15:58:22
(UTC+00:00)

NOSS 2-2 (C) - Pass Details

Date: 26 January 2020
Orbit: 484 x 1725 km, 63.3° (Epoch: 03 February)

Event Time Altitude Azimuth Distance (km) Brightness Sun altitude
Exits shadow 05:02:02 28° 330° (NNW) 1,086 4.5 -18.5°
Maximum altitude 05:02:09 28° 333° (NNW) 1,089 4.5 -18.5°
Drops below altitude 10° 05:06:07 10° 33° (NNE) 2,094 6.6 -17.8°
Sets 05:09:03 0° 45° (NE) 3,205 7.7 -17.4°
